Starlink 11083

operational
NORAD ID: 59424 Int'l Des: 2024-065 Owner: SPXS Country: US Constellation: starlink
LEOCIRCULAR

关于 Starlink 11083

正在加载描述...

实时位置

正在加载3D地球...

即将过境

高度历史

Altitude vs Time

uPlot chart will show altitude changes over time

两行轨道根数

1 59424U 24065D 25352.58533356 .00001292 00000-0 15520-4 0 9997
2 59424 53.1607 133.7823 0001090 75.3137 284.8002 15.69711479 98732
Epoch: Dec 18, 2025 • Age: 11 hours

当前状态

高度 365.1 km
速度 7.70 km/s
星下点 51.27°N, 95.87°E
发射日期 Apr 7, 2024
运行时间 1.6 years
类型 internet

技术详情

分类 Payload
质量 960.00 kg
干质量 910.00 kg
总质量 960.00 kg
长度 0.30 m
直径 4.10 m
跨度 29.00 m
形状 Box + pan
制造商 SPXS
平台类型 Starlink V2MD
阶段状态 In Orbit
所有者/国家 SPXS/US

大型星座

Loading constellations...